Time,TemperatureF,DewpointF,PressureIn,WindDirection,WindDirectionDegrees,WindSpeedMPH,WindSpeedGustMPH,Humidity,HourlyPrecipIn,Conditions,Clouds,dailyrainin,SoftwareType,DateUTC
2013-07-12 00:13:00,73.9,73.0,29.87,ESE,110,0.0,2.0,97,0.00,,,0.00,weatherlink.com 1.10,2013-07-12 04:13:00,
2013-07-12 00:28:00,73.5,73.0,29.87,ESE,110,0.0,2.0,97,0.00,,,0.00,weatherlink.com 1.10,2013-07-12 04:28:00,
2013-07-12 00:43:00,73.4,73.0,29.86,ESE,110,1.0,1.0,97,0.00,,,0.00,weatherlink.com 1.10,2013-07-12 04:43:00,
2013-07-12 00:58:00,73.1,72.0,29.85,ESE,110,0.0,1.0,97,0.00,,,0.00,weatherlink.com 1.10,2013-07-12 04:58:00,
2013-07-12 01:13:00,73.0,72.0,29.85,ESE,110,2.0,3.0,97,0.00,,,0.00,weatherlink.com 1.10,2013-07-12 05:13:00,
2013-07-12 01:28:00,72.7,72.0,29.85,ESE,118,2.0,4.0,98,0.00,,,0.00,weatherlink.com 1.10,2013-07-12 05:28:00,
2013-07-12 01:43:00,72.6,72.0,29.86,SE,128,0.0,3.0,98,0.00,,,0.00,weatherlink.com 1.10,2013-07-12 05:43:00,
2013-07-12 01:58:00,72.6,72.0,29.86,ESE,116,2.0,2.0,98,0.00,,,0.00,weatherlink.com 1.10,2013-07-12 05:58:00,
2013-07-12 02:13:00,72.3,72.0,29.86,SE,124,3.0,5.0,98,0.00,,,0.00,weatherlink.com 1.10,2013-07-12 06:13:00,
2013-07-12 02:28:00,72.2,72.0,29.86,SE,129,0.0,2.0,98,0.00,,,0.00,weatherlink.com 1.10,2013-07-12 06:28:00,
2013-07-12 02:43:00,72.3,72.0,29.86,SE,129,0.0,0.0,98,0.00,,,0.00,weatherlink.com 1.10,2013-07-12 06:43:00,
2013-07-12 02:58:00,72.1,72.0,29.85,SE,146,0.0,2.0,98,0.00,,,0.00,weatherlink.com 1.10,2013-07-12 06:58:00,
2013-07-12 03:13:00,72.1,72.0,29.85,SE,146,0.0,2.0,98,0.00,,,0.00,weatherlink.com 1.10,2013-07-12 07:13:00,
2013-07-12 03:28:00,72.1,72.0,29.86,SE,146,0.0,2.0,98,0.00,,,0.00,weatherlink.com 1.10,2013-07-12 07:28:00,
2013-07-12 03:43:00,72.0,71.0,29.86,SE,146,0.0,1.0,98,0.00,,,0.00,weatherlink.com 1.10,2013-07-12 07:43:00,
2013-07-12 03:58:00,71.8,71.0,29.85,SE,146,0.0,1.0,98,0.00,,,0.00,weatherlink.com 1.10,2013-07-12 07:58:00,
2013-07-12 04:13:00,71.7,71.0,29.84,SSE,167,2.0,3.0,98,0.00,,,0.00,weatherlink.com 1.10,2013-07-12 08:13:00,
2013-07-12 04:28:00,71.4,71.0,29.84,SSE,167,1.0,3.0,98,0.00,,,0.00,weatherlink.com 1.10,2013-07-12 08:28:00,
2013-07-12 04:43:00,71.3,71.0,29.85,SSW,199,3.0,5.0,99,0.00,,,0.00,weatherlink.com 1.10,2013-07-12 08:43:00,
2013-07-12 04:58:00,71.2,71.0,29.85,SSW,200,2.0,5.0,99,0.00,,,0.00,weatherlink.com 1.10,2013-07-12 08:58:00,
2013-07-12 05:13:00,70.7,70.0,29.85,South,176,2.0,7.0,99,0.00,,,0.00,weatherlink.com 1.10,2013-07-12 09:13:00,
2013-07-12 05:28:00,70.5,70.0,29.86,WNW,283,0.0,7.0,99,0.00,,,0.00,weatherlink.com 1.10,2013-07-12 09:28:00,
2013-07-12 05:43:00,70.2,70.0,29.85,West,264,1.0,4.0,99,0.00,,,0.00,weatherlink.com 1.10,2013-07-12 09:43:00,
2013-07-12 05:58:00,70.0,70.0,29.85,WNW,291,2.0,4.0,99,0.00,,,0.00,weatherlink.com 1.10,2013-07-12 09:58:00,
2013-07-12 06:13:00,69.7,69.0,29.86,WNW,291,1.0,2.0,98,0.00,,,0.00,weatherlink.com 1.10,2013-07-12 10:13:00,
2013-07-12 06:28:00,69.4,69.0,29.86,WNW,291,1.0,3.0,99,0.00,,,0.00,weatherlink.com 1.10,2013-07-12 10:28:00,
2013-07-12 06:44:00,69.4,69.0,29.86,WNW,291,0.0,2.0,99,0.00,,,0.00,weatherlink.com 1.10,2013-07-12 10:44:00,
2013-07-12 06:59:00,69.4,69.0,29.86,WNW,291,0.0,1.0,99,0.00,,,0.00,weatherlink.com 1.10,2013-07-12 10:59:00,
2013-07-12 07:14:00,69.5,69.0,29.86,WNW,291,0.0,1.0,99,0.00,,,0.00,weatherlink.com 1.10,2013-07-12 11:14:00,
2013-07-12 07:29:00,69.6,69.0,29.87,WNW,291,1.0,2.0,99,0.00,,,0.00,weatherlink.com 1.10,2013-07-12 11:29:00,
2013-07-12 07:44:00,69.8,70.0,29.88,WNW,291,0.0,2.0,99,0.00,,,0.00,weatherlink.com 1.10,2013-07-12 11:44:00,
2013-07-12 07:59:00,70.1,70.0,29.88,WNW,291,1.0,2.0,99,0.00,,,0.00,weatherlink.com 1.10,2013-07-12 11:59:00,
2013-07-12 08:14:00,70.3,70.0,29.89,SE,133,0.0,3.0,99,0.00,,,0.00,weatherlink.com 1.10,2013-07-12 12:14:00,
2013-07-12 08:29:00,71.0,71.0,29.89,SE,136,2.0,4.0,99,0.00,,,0.00,weatherlink.com 1.10,2013-07-12 12:29:00,
2013-07-12 08:44:00,72.0,71.0,29.89,SE,133,1.0,2.0,97,0.00,,,0.00,weatherlink.com 1.10,2013-07-12 12:44:00,
2013-07-12 08:59:00,73.1,71.0,29.89,North,354,2.0,5.0,93,0.00,,,0.00,weatherlink.com 1.10,2013-07-12 12:59:00,
2013-07-12 09:14:00,74.2,71.0,29.89,NE,43,3.0,5.0,90,0.00,,,0.00,weatherlink.com 1.10,2013-07-12 13:14:00,
2013-07-12 09:29:00,75.0,71.0,29.89,ENE,70,1.0,6.0,87,0.00,,,0.00,weatherlink.com 1.10,2013-07-12 13:29:00,
2013-07-12 09:44:00,76.1,72.0,29.89,ENE,73,1.0,6.0,86,0.00,,,0.00,weatherlink.com 1.10,2013-07-12 13:44:00,
2013-07-12 09:59:00,77.5,71.0,29.89,ESE,111,0.0,6.0,81,0.00,,,0.00,weatherlink.com 1.10,2013-07-12 13:59:00,
2013-07-12 10:14:00,78.6,72.0,29.89,North,354,3.0,4.0,79,0.00,,,0.00,weatherlink.com 1.10,2013-07-12 14:14:00,
2013-07-12 10:29:00,79.1,71.0,29.89,NE,41,1.0,4.0,77,0.00,,,0.00,weatherlink.com 1.10,2013-07-12 14:29:00,
2013-07-12 10:44:00,80.2,72.0,29.89,NW,320,2.0,6.0,77,0.00,,,0.00,weatherlink.com 1.10,2013-07-12 14:44:00,
2013-07-12 10:59:00,80.7,73.0,29.89,East,85,5.0,7.0,76,0.00,,,0.00,weatherlink.com 1.10,2013-07-12 14:59:00,
2013-07-12 11:14:00,81.1,72.0,29.89,SE,139,4.0,7.0,74,0.00,,,0.00,weatherlink.com 1.10,2013-07-12 15:14:00,
2013-07-12 11:29:00,82.2,73.0,29.89,NE,49,2.0,7.0,73,0.00,,,0.00,weatherlink.com 1.10,2013-07-12 15:29:00,
2013-07-12 11:44:00,82.4,72.0,29.89,North,354,1.0,8.0,71,0.00,,,0.00,weatherlink.com 1.10,2013-07-12 15:44:00,
2013-07-12 11:59:00,82.7,73.0,29.89,East,81,1.0,7.0,72,0.00,,,0.00,weatherlink.com 1.10,2013-07-12 15:59:00,
2013-07-12 12:14:00,82.9,71.0,29.89,NE,48,7.0,9.0,68,0.00,,,0.00,weatherlink.com 1.10,2013-07-12 16:14:00,
2013-07-12 12:29:00,83.3,71.0,29.89,ESE,109,1.0,4.0,67,0.00,,,0.00,weatherlink.com 1.10,2013-07-12 16:29:00,
2013-07-12 12:45:00,82.6,72.0,29.88,SSE,152,1.0,6.0,71,0.00,,,0.00,weatherlink.com 1.10,2013-07-12 16:45:00,
2013-07-12 13:00:00,81.2,73.0,29.88,SSW,197,3.0,8.0,76,0.00,,,0.00,weatherlink.com 1.10,2013-07-12 17:00:00,
2013-07-12 13:45:00,83.6,72.0,29.86,SE,140,2.0,12.0,69,0.00,,,0.00,weatherlink.com 1.10,2013-07-12 17:45:00,
2013-07-12 14:00:00,83.6,72.0,29.86,SE,126,5.0,12.0,68,0.00,,,0.00,weatherlink.com 1.10,2013-07-12 18:00:00,
2013-07-12 14:15:00,83.8,71.0,29.86,SSE,154,2.0,7.0,65,0.00,,,0.00,weatherlink.com 1.10,2013-07-12 18:15:00,
2013-07-12 14:30:00,83.0,73.0,29.86,South,169,1.0,10.0,72,0.00,,,0.00,weatherlink.com 1.10,2013-07-12 18:30:00,
2013-07-12 14:45:00,81.8,72.0,29.86,SE,127,7.0,7.0,72,0.00,,,0.00,weatherlink.com 1.10,2013-07-12 18:45:00,
2013-07-12 15:00:00,81.6,72.0,29.86,East,100,6.0,9.0,72,0.00,,,0.00,weatherlink.com 1.10,2013-07-12 19:00:00,
2013-07-12 15:15:00,82.5,72.0,29.85,South,181,5.0,7.0,71,0.00,,,0.00,weatherlink.com 1.10,2013-07-12 19:15:00,
2013-07-12 15:45:00,82.1,72.0,29.85,ESE,109,11.0,12.0,71,0.00,,,0.00,weatherlink.com 1.10,2013-07-12 19:45:00,
2013-07-12 16:00:00,80.3,71.0,29.88,NNW,334,4.0,10.0,74,0.00,,,0.00,weatherlink.com 1.10,2013-07-12 20:00:00,
2013-07-12 16:16:00,67.4,63.0,29.90,NNW,327,4.0,21.0,85,0.00,,,0.00,weatherlink.com 1.10,2013-07-12 20:16:00,
2013-07-12 16:31:00,63.2,61.0,29.89,East,91,3.0,8.0,92,0.00,,,0.00,weatherlink.com 1.10,2013-07-12 20:31:00,
2013-07-12 16:36:00,-999.0,-99.9,0.00,North,-999,-999.0,-999.0,-999,0.00,,,0.00,weatherlink.com 1.10,2013-07-12 20:36:00,
2013-07-12 16:48:00,62.7,-99.9,29.89,South,191,0.0,0.0,-999,0.00,,,0.00,weatherlink.com 1.10,2013-07-12 20:48:00,
2013-07-12 17:03:00,63.8,63.0,29.89,NNE,25,4.0,7.0,98,0.00,,,0.00,weatherlink.com 1.10,2013-07-12 21:03:00,
2013-07-12 17:18:00,64.8,64.0,29.89,NW,322,3.0,5.0,98,0.00,,,0.00,weatherlink.com 1.10,2013-07-12 21:18:00,
2013-07-12 17:33:00,65.1,65.0,29.91,NW,316,2.0,3.0,98,0.00,,,0.00,weatherlink.com 1.10,2013-07-12 21:33:00,
2013-07-12 17:48:00,65.3,65.0,29.90,NW,306,3.0,5.0,98,0.00,,,0.00,weatherlink.com 1.10,2013-07-12 21:48:00,
2013-07-12 18:03:00,65.4,65.0,29.90,NE,40,3.0,4.0,97,0.00,,,0.00,weatherlink.com 1.10,2013-07-12 22:03:00,
2013-07-12 18:18:00,65.6,65.0,29.91,WNW,289,0.0,4.0,97,0.00,,,0.00,weatherlink.com 1.10,2013-07-12 22:18:00,
2013-07-12 18:33:00,65.8,65.0,29.92,WNW,289,2.0,3.0,98,0.00,,,0.00,weatherlink.com 1.10,2013-07-12 22:33:00,
2013-07-12 18:48:00,66.0,65.0,29.91,WNW,289,0.0,1.0,97,0.00,,,0.00,weatherlink.com 1.10,2013-07-12 22:48:00,
2013-07-12 19:03:00,66.5,66.0,29.91,WNW,289,0.0,1.0,97,0.00,,,0.00,weatherlink.com 1.10,2013-07-12 23:03:00,
2013-07-12 19:33:00,66.7,66.0,29.91,WNW,287,1.0,1.0,97,0.00,,,0.00,weatherlink.com 1.10,2013-07-12 23:33:00,
2013-07-12 19:48:00,67.0,66.0,29.91,WNW,287,0.0,1.0,97,0.00,,,0.00,weatherlink.com 1.10,2013-07-12 23:48:00,
2013-07-12 20:03:00,67.1,66.0,29.91,NNE,30,0.0,2.0,97,0.00,,,0.00,weatherlink.com 1.10,2013-07-13 00:03:00,
2013-07-12 20:33:00,67.3,67.0,29.91,WSW,245,0.0,1.0,97,0.00,,,0.00,weatherlink.com 1.10,2013-07-13 00:33:00,
2013-07-12 20:48:00,67.4,67.0,29.91,WSW,245,0.0,1.0,97,0.00,,,0.00,weatherlink.com 1.10,2013-07-13 00:48:00,
2013-07-12 21:03:00,67.3,67.0,29.91,WSW,245,0.0,0.0,97,0.00,,,0.00,weatherlink.com 1.10,2013-07-13 01:03:00,
2013-07-12 21:48:00,67.3,67.0,29.94,North,11,0.0,2.0,98,0.00,,,0.00,weatherlink.com 1.10,2013-07-13 01:48:00,
2013-07-12 22:03:00,67.3,67.0,29.95,SE,131,0.0,2.0,98,0.00,,,0.00,weatherlink.com 1.10,2013-07-13 02:03:00,
2013-07-12 22:18:00,67.6,67.0,29.96,North,354,2.0,8.0,97,0.00,,,0.00,weatherlink.com 1.10,2013-07-13 02:18:00,
2013-07-12 22:34:00,67.6,66.0,29.97,NNE,26,3.0,10.0,95,0.00,,,0.00,weatherlink.com 1.10,2013-07-13 02:34:00,
2013-07-12 22:49:00,67.1,65.0,29.98,North,349,3.0,6.0,94,0.00,,,0.00,weatherlink.com 1.10,2013-07-13 02:49:00,
2013-07-12 23:04:00,66.7,64.0,29.98,East,86,5.0,7.0,92,0.00,,,0.00,weatherlink.com 1.10,2013-07-13 03:04:00,
2013-07-12 23:19:00,66.3,64.0,29.98,ESE,102,0.0,7.0,92,0.00,,,0.00,weatherlink.com 1.10,2013-07-13 03:19:00,
2013-07-12 23:34:00,65.1,63.0,29.98,North,359,1.0,7.0,94,0.00,,,0.00,weatherlink.com 1.10,2013-07-13 03:34:00,
2013-07-12 23:49:00,65.4,64.0,29.99,NNW,341,2.0,7.0,96,0.00,,,0.00,weatherlink.com 1.10,2013-07-13 03:49:00,